TimeEDT,TemperatureF,Dew PointF,Humidity,Sea Level PressureIn,VisibilityMPH,Wind Direction,Wind SpeedMPH,Gust SpeedMPH,PrecipitationIn,Events,Conditions,WindDirDegrees,DateUTC
12:53 AM,52.0,46.0,80,30.14,10.0,Calm,Calm,-,N/A,,Overcast,0,2012-10-10 04:53:00
1:53 AM,52.0,45.0,77,30.13,10.0,North,3.5,-,N/A,,Overcast,10,2012-10-10 05:53:00
2:53 AM,52.0,44.1,74,30.11,10.0,North,3.5,-,N/A,,Overcast,360,2012-10-10 06:53:00
3:31 AM,51.8,44.6,76,30.08,10.0,NNE,3.5,-,N/A,,Overcast,20,2012-10-10 07:31:00
3:53 AM,51.1,45.0,80,30.08,10.0,Calm,Calm,-,N/A,,Overcast,0,2012-10-10 07:53:00
4:53 AM,51.1,45.0,80,30.06,10.0,Variable,3.5,-,N/A,,Overcast,0,2012-10-10 08:53:00
5:22 AM,51.8,46.4,82,30.06,10.0,NNW,4.6,-,N/A,,Overcast,340,2012-10-10 09:22:00
5:53 AM,51.1,46.0,83,30.06,10.0,North,4.6,-,N/A,,Overcast,350,2012-10-10 09:53:00
6:53 AM,50.0,46.9,89,30.05,5.0,North,5.8,-,0.01,Rain,Light Rain,360,2012-10-10 10:53:00
7:00 AM,50.0,46.4,87,30.04,2.0,North,6.9,-,0.00,Rain,Light Rain,350,2012-10-10 11:00:00
7:49 AM,50.0,46.4,87,30.02,2.0,North,5.8,-,0.01,Rain,Light Rain,10,2012-10-10 11:49:00
7:53 AM,50.0,46.9,89,30.03,2.0,North,5.8,-,0.01,Rain,Light Rain,360,2012-10-10 11:53:00
7:55 AM,50.0,46.4,87,30.02,2.0,North,5.8,-,0.01,Rain,Light Rain,10,2012-10-10 11:55:00
8:10 AM,50.0,46.4,87,30.02,2.0,North,4.6,-,0.01,,Overcast,10,2012-10-10 12:10:00
8:53 AM,50.0,46.9,89,30.02,3.0,NNE,4.6,-,0.01,,Overcast,20,2012-10-10 12:53:00
9:53 AM,51.1,48.0,89,29.99,3.0,North,8.1,-,0.00,Rain,Light Rain,10,2012-10-10 13:53:00
10:53 AM,52.0,48.9,89,29.95,2.0,North,5.8,-,0.01,Rain,Light Rain,10,2012-10-10 14:53:00
11:53 AM,53.6,50.0,88,29.90,2.0,North,5.8,-,N/A,Rain,Light Rain,350,2012-10-10 15:53:00
12:41 PM,53.6,51.8,94,29.88,1.5,NNE,4.6,-,0.03,Rain,Light Rain,20,2012-10-10 16:41:00
12:49 PM,53.6,51.8,94,29.87,3.0,North,4.6,-,0.03,Rain,Light Rain,360,2012-10-10 16:49:00
12:53 PM,54.0,51.1,90,29.87,2.0,North,3.5,-,0.03,Rain,Light Rain,350,2012-10-10 16:53:00
1:35 PM,55.4,51.8,88,29.84,2.0,Calm,Calm,-,0.05,Rain,Rain,0,2012-10-10 17:35:00
1:37 PM,55.4,51.8,88,29.84,2.0,Calm,Calm,-,0.06,Rain,Rain,0,2012-10-10 17:37:00
1:53 PM,55.9,53.1,90,29.84,1.5,Calm,Calm,-,0.09,Rain,Rain,0,2012-10-10 17:53:00
2:13 PM,55.4,53.6,94,29.82,3.0,Calm,Calm,-,0.02,Rain,Light Rain,0,2012-10-10 18:13:00
2:28 PM,55.4,53.6,94,29.81,2.5,Calm,Calm,-,0.02,Rain,Light Rain,0,2012-10-10 18:28:00
2:35 PM,55.4,53.6,94,29.81,5.0,West,3.5,-,0.02,Rain,Light Rain,270,2012-10-10 18:35:00
2:53 PM,57.0,54.0,89,29.81,10.0,Calm,Calm,-,0.02,,Overcast,0,2012-10-10 18:53:00
3:53 PM,57.9,55.0,90,29.78,10.0,South,4.6,-,N/A,,Overcast,190,2012-10-10 19:53:00
4:53 PM,59.0,55.9,90,29.76,10.0,SSE,3.5,-,N/A,,Overcast,160,2012-10-10 20:53:00
5:53 PM,60.1,55.0,83,29.75,10.0,SW,6.9,-,N/A,,Mostly Cloudy,220,2012-10-10 21:53:00
6:53 PM,57.0,53.1,87,29.77,10.0,Calm,Calm,-,N/A,,Partly Cloudy,0,2012-10-10 22:53:00
7:31 PM,53.6,51.8,94,29.76,2.5,Calm,Calm,-,N/A,,Mostly Cloudy,0,2012-10-10 23:31:00
7:53 PM,53.1,51.1,93,29.77,4.0,Calm,Calm,-,N/A,,Mostly Cloudy,0,2012-10-10 23:53:00
8:03 PM,51.8,50.0,94,29.77,1.8,SE,3.5,-,N/A,,Mostly Cloudy,130,2012-10-11 00:03:00
8:11 PM,53.6,51.8,94,29.77,4.0,Calm,Calm,-,N/A,,Scattered Clouds,0,2012-10-11 00:11:00
8:53 PM,55.0,48.9,80,29.79,4.0,WSW,6.9,-,N/A,,Haze,240,2012-10-11 00:53:00
9:53 PM,51.1,39.9,66,29.85,10.0,WNW,16.1,24.2,N/A,,Mostly Cloudy,300,2012-10-11 01:53:00
10:53 PM,50.0,41.0,71,29.86,10.0,WNW,13.8,26.5,0.00,Rain,Light Rain,300,2012-10-11 02:53:00
11:53 PM,48.9,39.9,71,29.88,10.0,West,8.1,-,0.01,,Scattered Clouds,270,2012-10-11 03:53:00